Location: Pinhey's Point
(45.4411°N, 75.9539°W)
Time: 23:06:28
(UTC-04:00)

Iridium 65 - Visible Passes

Search period start: 25 July 2014 00:00
Search period end: 04 August 2014 00:00
Orbit: 776 x 779 km, 86.4° (Epoch: 25 July)

Date Brightness Start Highest point End Pass type
(mag) Time Alt. Az. Time Alt. Az. Time Alt. Az.
25 Jul 6.3 00:50:14 38° ESE 00:50:51 39° E 00:55:41 10° NNE visible
25 Jul 6.8 02:30:43 26° W 02:31:41 27° WNW 02:36:06 10° NNW visible
26 Jul 7.0 00:16:51 22° E 00:17:34 23° E 00:21:34 10° NNE visible
26 Jul 6.0 01:57:20 45° WSW 01:57:57 47° W 02:02:59 10° N visible
26 Jul 7.6 23:43:28 12° E 23:44:24 13° ENE 23:46:42 10° NE visible
27 Jul 5.4 01:23:56 75° SSW 01:24:21 83° W 01:29:35 10° N visible
27 Jul 7.8 03:04:26 10° W 03:05:56 11° WNW 03:07:26 10° NW visible
28 Jul 5.7 00:50:33 55° ESE 00:50:52 56° E 00:55:58 10° NNE visible
28 Jul 7.2 02:31:01 19° W 02:31:59 20° WNW 02:35:44 10° NNW visible
29 Jul 6.6 00:17:09 31° E 00:17:31 32° E 00:22:04 10° NNE visible
29 Jul 6.5 01:57:37 33° W 01:58:10 33° WNW 02:02:53 10° NNW visible
29 Jul 7.3 23:43:44 18° E 23:44:16 18° ENE 23:47:45 10° NE visible
30 Jul 5.7 01:24:12 58° W 01:24:29 59° W 01:29:39 10° N visible
30 Jul 7.8 23:10:57 10° ENE 23:11:10 10° ENE 23:11:23 10° ENE visible
31 Jul 5.4 00:50:48 78° ESE 00:50:56 79° E 00:56:09 10° N visible
31 Jul 7.6 02:31:16 13° W 02:32:19 14° WNW 02:35:02 10° NW visible
01 Aug 6.1 00:17:23 44° E 00:17:30 44° E 00:22:26 10° NNE visible
01 Aug 7.0 01:57:51 24° W 01:58:25 24° WNW 02:02:38 10° NNW visible
01 Aug 6.8 23:43:57 25° E 23:44:11 26° E 23:48:24 10° NNE visible
02 Aug 6.2 01:24:25 41° W 01:24:39 42° W 01:29:36 10° N visible
02 Aug 7.5 23:10:31 15° E 23:11:00 15° ENE 23:13:47 10° NE visible
03 Aug 5.5 00:50:59 74° W 00:51:01 74° W 00:56:15 10° N visible
